Regional Weather Roundup
Issued by NWS

Home | Current Version | Previous Version | Graphics & Text | Print | Product List | Glossary On
Versions: 1 2 3 4 5 6 7 8 9 10 11 12 13 14 15 16 17 18 19 20 21 22 23 24 25 26 27 28 29 30 31 32 33 34 35 36 37 38 39 40 41 42 43 44 45 46 47 48 49 50
561
ASUS43 KBIS 170710
RWRND

NORTH DAKOTA REGIONAL WEATHER ROUNDUP
NATIONAL WEATHER SERVICE BISMARCK ND
100 AM CST WED JAN 17 2018

NOTE: "FAIR" INDICATES FEW OR NO CLOUDS BELOW 12,000 FEET WITH NO
SIGNIFICANT WEATHER AND/OR OBSTRUCTIONS TO VISIBILITY.


NDZ001>003-009>011-017-170800-
NORTHWEST NORTH DAKOTA

CITY           SKY/WX    TMP DP  RH WIND       PRES   REMARKS
WILLISTON      CLEAR      3  -3  76 SE3       30.11F
MINOT          CLOUDY    14  -1  51 SW22      30.05F WCI  -4
MINOT AFB      CLOUDY    15   0  51 SW8       30.04F WCI   4
$$

NDZ018>021-031>035-040>046-170800-
SOUTHWEST NORTH DAKOTA

CITY           SKY/WX    TMP DP  RH WIND       PRES   REMARKS
BISMARCK       CLEAR      8  -1  66 SW7       30.22F WCI  -3
DICKINSON      CLEAR     17   2  51 SW9       30.10F WCI   6
GARRISON         N/A      4  -3  73 S6        30.13F WCI  -7
HETTINGER ARPT CLEAR      2  -5  72 CALM      30.17S
$$

NDZ004>008-012>016-024-026-027-054-170800-
NORTHEAST NORTH DAKOTA

CITY           SKY/WX    TMP DP  RH WIND       PRES   REMARKS
GRAND FORKS    FAIR       3  -3  76 S12       30.21F WCI -13
GRND FRKS AFB  FAIR       8  -3  61 SW16      30.19F WCI -10
DEVILS LAKE    FAIR       8  -1  66 SW17      30.13F WCI -10
$$

NDZ022-023-025-028>030-036>039-047>053-170800-
SOUTHEAST NORTH DAKOTA

CITY           SKY/WX    TMP DP  RH WIND       PRES   REMARKS
FARGO          FAIR       4  -3  73 S16       30.31F WCI -15
JAMESTOWN      CLOUDY     7  -1  70 S10       30.20F WCI  -8
$$





USA.gov is the U.S. government's official web portal to all federal, state and local government web resources and services.